Location: *
(42.0175°N, 9.4056°E)
Time: 10:01:50
(UTC+00:00)

MetOp-A - Pass Details

Date: 25 August 2019
Orbit: 820 x 821 km, 98.6° (Epoch: 20 October)

Event Time Altitude Azimuth Distance (km) Brightness Sun altitude
Exits shadow 19:30:11 18° 149° (SSE) 1,912 5.5 -14.9°
Maximum altitude 19:34:08 63° 73° (ENE) 917 4.2 -15.5°
Drops below altitude 10° 19:39:26 10° 353° (N) 2,426 7.1 -16.4°
Sets 19:41:49 0° 350° (N) 3,363 8.0 -16.7°
